[[{"header":{"parameterUnit":"m.s-1","parameterCategory":1,"la1":30.2991,"la2":30.254,"lo1":-89.0895,"lo2":-89.0444,"dy":0.0017,"dx":0.0017,"nx":28,"ny":28,"refTime":"2025-07-18T09:00:00:Z","depth":0,"parameterNumber":2,"parameterNumberName":"U-component_of_WINDS"},"data":[0,0,0,0,0,0,0,0,0,0,0,0,0,0,0,0,0,0,0,0,0,0,0,0,0,0,0,0,0,0,0,0,0,0,0,0,0,0,0,0,0,0,0,0,0,0,0,0,0,0,0,0,0,0,0,0,0,0,2.2435,2.2436,0,2.248,2.248,2.2481,2.2441,2.2439,2.2438,2.2436,2.248,2.2483,2.2485,0,0,0,0,0,0,0,0,0,0,0,0,0,2.2313,2.2316,2.2435,2.2436,2.2436,2.248,2.248,2.2481,2.2441,2.2439,2.2437,2.2436,2.2479,2.2482,2.2486,0,0,0,0,0,0,0,0,0,0,0,0,0,2.2363,2.2317,2.2435,2.2422,2.2421,2.2479,2.248,2.2481,2.2442,2.2439,2.2437,2.2435,2.2478,2.2482,2.2486,2.2559,0,0,2.2498,2.25,0,0,0,0,0,0,0,0,2.236,2.2367,2.2423,2.2423,2.2422,2.2452,2.2453,2.2507,2.2442,2.2434,2.2436,2.2433,2.2473,2.2477,2.2491,2.2561,2.2563,2.2499,2.2501,2.2503,2.2504,0,0,0,0,0,0,0,2.2357,2.2365,2.2453,2.2424,2.2424,2.2413,2.2417,2.2463,2.2466,2.2434,2.2432,2.2438,2.2472,2.2487,2.2491,2.2564,2.2499,2.2502,2.2505,2.2506,2.2693,2.2696,0,0,0,0,0,0,2.2355,2.2363,2.2451,2.2454,2.2385,2.2417,2.2422,2.2445,2.2466,2.2467,2.244,2.2436,2.2481,2.2487,2.2493,2.2577,2.2503,2.2507,2.2509,2.2691,2.2694,2.2697,0,0,0,0,0,0,2.2353,2.2363,2.245,2.2408,2.2418,2.2422,2.2448,2.2447,2.2462,2.247,2.247,2.2454,2.248,2.2487,2.2542,2.2578,2.2508,2.2512,2.2688,2.2692,2.2695,2.2748,0,0,0,0,0,0,2.2349,2.2363,2.2391,2.2409,2.242,2.25,2.245,2.245,2.2469,2.2464,2.2484,2.2484,2.2478,2.2537,2.2546,2.2582,2.2515,2.2684,2.2689,2.2694,2.2743,2.2754,2.2762,0,0,0,0,0,2.2345,2.2405,2.2393,2.2404,2.2456,2.2502,2.2508,2.25,2.2473,2.25,2.2505,2.2484,2.2573,2.2543,2.2553,2.2591,2.2682,2.2688,2.2694,2.2739,2.2752,2.2762,0,0,0,0,0,0,2.2392,2.2407,2.2394,2.2462,2.2481,2.2495,2.253,2.2514,2.2541,2.2536,2.2524,2.2529,2.2587,2.2595,2.256,2.2661,2.2623,2.2631,2.2654,2.2666,2.2675,2.2671,2.2518,0,0,0,0,0,2.241,2.2447,2.2458,2.2516,2.2526,2.2527,2.2546,2.2538,2.2558,2.2565,2.2574,2.2593,2.2624,2.2646,2.2676,2.2745,2.2747,2.2776,2.2785,2.2793,2.28,2.2834,2.2846,2.2716,2.2716,2.2715,0,0,2.2448,2.2461,2.2484,2.2526,2.254,2.2576,2.2534,2.2575,2.2601,2.2571,2.2623,2.263,2.265,2.2712,2.274,2.272,2.2836,2.2801,2.2807,2.2809,2.2841,2.2853,2.2864,2.2719,2.2719,2.2718,0,0,2.2535,2.255,2.2598,2.2613,2.2634,2.2634,2.2646,2.2662,2.2666,2.2718,2.2695,2.2726,2.2783,2.2797,2.2811,2.2902,2.2883,2.2912,2.2961,2.2994,2.3004,2.3013,2.3043,2.3054,2.2919,2.2919,2.292,0,2.2579,2.2634,2.2625,2.2667,2.2685,2.266,2.2708,2.2722,2.2753,2.2765,2.2743,2.2811,2.2823,2.2886,2.2908,2.2922,2.2933,2.2909,2.3004,2.3013,2.3021,2.3049,2.3061,2.2923,2.2922,2.2922,2.2922,0,2.2686,2.2724,2.2761,2.279,2.2812,2.2857,2.2854,2.2877,2.2867,2.2868,2.292,2.2934,2.2965,2.298,2.2971,2.3041,2.3028,2.3006,2.2966,2.3037,2.3063,2.3074,2.2927,2.2926,2.2925,2.2924,0,0,2.2803,2.2826,2.2839,2.2851,2.2872,2.2901,2.2944,2.2975,2.2993,2.3015,2.3049,2.3096,2.3075,2.3092,2.3084,2.3114,2.3181,2.3087,2.3087,2.3102,2.3256,2.3271,2.3284,2.3169,2.3171,2.3173,2.3254,0,2.2889,2.2964,2.2956,2.3027,2.3061,2.3037,2.3074,2.309,2.3092,2.312,2.3123,2.3155,2.3126,2.3135,2.3164,2.3167,2.3212,2.3161,2.3199,2.32,2.3192,2.3298,2.3315,2.339,2.3264,2.3266,2.3267,0,2.2999,2.3023,2.3097,2.3111,2.3125,2.3158,2.3184,2.3212,2.3229,2.3229,2.3247,2.3233,2.3275,2.3236,2.3291,2.3257,2.3272,2.3276,2.3279,2.328,2.3236,2.33,2.3414,2.3425,2.3284,2.3282,2.3281,0,2.3074,2.3125,2.3175,2.3187,2.3205,2.3228,2.3237,2.3252,2.327,2.3292,2.3303,2.3331,2.3345,2.3366,2.336,2.3333,2.3416,2.3377,2.3415,2.3415,2.3432,2.343,2.3548,2.3446,2.3446,2.3445,2.3445,0,2.3169,2.3214,2.3209,2.3239,2.3289,2.328,2.3329,2.3334,2.3347,2.3377,2.3359,2.3387,2.3378,2.3406,2.3401,2.3446,2.3454,2.3453,2.3451,2.3453,2.3453,2.3461,2.3455,2.3448,2.3448,2.3447,2.3447,0,2.326,2.3259,2.3311,2.3323,2.3328,2.3363,2.3373,2.3401,2.3402,2.344,2.3448,2.3449,2.348,2.3476,2.3512,2.3509,2.3564,2.3557,2.3558,2.3555,2.3592,2.3588,2.3717,2.3732,2.3623,2.3624,2.3625,0,2.3319,2.3354,2.3369,2.3388,2.3398,2.3429,2.3447,2.3439,2.3458,2.3479,2.3504,2.3534,2.3557,2.3608,2.3611,2.3637,2.3628,2.3672,2.3632,2.3633,2.3626,2.3623,2.3625,2.3679,2.368,2.3681,2.3682,0,2.3424,2.3421,2.3448,2.3474,2.3496,2.3517,2.3535,2.3551,2.3544,2.3567,2.3598,2.3616,2.3652,2.368,2.3705,2.3712,2.3696,2.3695,2.3704,2.3706,2.3704,2.3703,2.3577,2.3692,2.3691,2.369,2.3689,2.3689,2.35,2.3528,2.3543,2.3572,2.3585,2.3602,2.3628,2.3632,2.3658,2.3686,2.368,2.3715,2.3729,2.376,2.377,2.3797,2.3781,2.3795,2.3799,2.3802,2.3805,2.3702,2.3802,2.3801,2.3801,2.3801,2.3801,0,2.3601,2.3609,2.3637,2.3662,2.3685,2.3668,2.3687,2.3707,2.3738,2.3753,2.3776,2.3811,2.3839,2.3844,2.3869,2.3889,2.3882,2.3896,2.3893,2.3895,2.3819,2.3807,2.3902,2.3902,2.3902,2.3901,2.3901,2.3901,2.3656,2.3702,2.3701,2.3752,2.376,2.3794,2.3806,2.3821,2.3832,2.3872,2.3895,2.3898,2.3909,2.3935,2.3959,2.3959,2.3968,2.3985,2.3982,2.3911,2.3901,2.3891,2.3879,2.3988,2.3988,2.4056,2.4057,2.4057]},{"header":{"parameterUnit":"m.s-1","parameterCategory":1,"la1":30.2991,"la2":30.254,"lo1":-89.0895,"lo2":-89.0444,"dy":0.0017,"dx":0.0017,"nx":28,"ny":28,"refTime":"2025-07-18T09:00:00:Z","depth":0,"parameterNumber":3,"parameterNumberName":"V-component_of_WINDS"},"data":[0,0,0,0,0,0,0,0,0,0,0,0,0,0,0,0,0,0,0,0,0,0,0,0,0,0,0,0,0,0,0,0,0,0,0,0,0,0,0,0,0,0,0,0,0,0,0,0,0,0,0,0,0,0,0,0,0,0,5.9346,5.9348,0,5.9572,5.9574,5.9577,5.9584,5.9582,5.9579,5.9576,5.9804,5.9813,5.9821,0,0,0,0,0,0,0,0,0,0,0,0,0,5.8916,5.8924,5.9346,5.9349,5.9351,5.9571,5.9575,5.9578,5.9585,5.9582,5.9578,5.9575,5.9801,5.9811,5.9822,0,0,0,0,0,0,0,0,0,0,0,0,0,5.9118,5.8926,5.9345,5.9382,5.9387,5.9571,5.9575,5.9578,5.9586,5.9582,5.9577,5.9574,5.9798,5.9811,5.9823,5.9985,0,0,5.9863,5.9868,0,0,0,0,0,0,0,0,5.9107,5.9134,5.9374,5.938,5.9386,5.9546,5.9507,5.9714,5.9587,5.951,5.9576,5.9572,5.9721,5.974,5.9791,5.9995,6.0005,5.9864,5.9872,5.9877,5.9881,0,0,0,0,0,0,0,5.9093,5.9124,5.9435,5.9377,5.9385,5.9385,5.9409,5.9546,5.9636,5.9517,5.9518,5.9544,5.9724,5.9779,5.9797,6.0008,5.9863,5.9875,5.9883,5.9888,6.0353,6.0357,0,0,0,0,0,0,5.9072,5.9113,5.9428,5.9442,5.9234,5.9396,5.9423,5.9499,5.9634,5.9651,5.9548,5.9544,5.9759,5.9782,5.9805,6.0001,5.9877,5.9889,5.9897,6.0348,6.0354,6.0359,0,0,0,0,0,0,5.9063,5.91,5.9419,5.9278,5.9318,5.9408,5.9492,5.9505,5.956,5.9658,5.9674,5.9588,5.9757,5.9787,5.994,6.0009,5.9895,5.9907,6.0343,6.035,6.0356,6.0395,0,0,0,0,0,0,5.9051,5.9097,5.916,5.9279,5.9326,5.9551,5.9497,5.9513,5.9583,5.958,5.97,5.9716,5.9756,5.992,5.9952,6.0025,5.9917,6.0337,6.0346,6.0354,6.0388,6.0402,6.0415,0,0,0,0,0,5.9035,5.9162,5.9164,5.9202,5.9407,5.9555,5.9582,5.9627,5.9589,5.9652,5.9714,5.9712,5.9996,5.9936,5.9972,6.0049,6.0333,6.0344,6.0354,6.0382,6.0399,6.0414,0,0,0,0,0,0,5.9048,5.9178,5.9181,5.9351,5.9442,5.9556,5.9638,5.9644,5.9747,5.974,5.979,5.9817,5.9968,6.0024,5.9954,6.0211,6.016,6.0178,6.0169,6.0187,6.02,6.0182,5.9928,0,0,0,0,0,5.9071,5.9182,5.9289,5.9428,5.9473,5.9548,5.9614,5.964,5.9736,5.9775,5.9848,5.994,6.005,6.0122,6.0229,6.0396,6.0421,6.0467,6.048,6.0491,6.0505,6.0596,6.0617,6.0393,6.0393,6.0393,0,0,5.9119,5.9203,5.927,5.9432,5.9506,5.9618,5.958,5.97,5.9783,5.9793,5.9941,5.9998,6.0104,6.0264,6.0339,6.0316,6.0573,6.0504,6.0512,6.0521,6.0608,6.0629,6.0648,6.04,6.0399,6.0398,0,0,5.9262,5.9339,5.9462,5.9536,5.9649,5.9697,5.9726,5.984,5.9879,6.0029,6.0037,6.0136,6.0325,6.0399,6.0462,6.0632,6.0632,6.0666,6.0735,6.0822,6.084,6.0856,6.0914,6.0935,6.068,6.068,6.068,0,5.9307,5.9477,5.9524,5.9644,5.9714,5.9729,5.9852,5.9922,6.0063,6.011,6.0083,6.0319,6.0392,6.0568,6.0609,6.0661,6.0694,6.0651,6.0834,6.085,6.0866,6.0922,6.0944,6.0683,6.0683,6.0683,6.0682,0,5.9525,5.9643,5.9728,5.9865,5.9944,6.0066,6.0129,6.0204,6.0223,6.0274,6.0425,6.0512,6.0636,6.068,6.07,6.086,6.0841,6.0824,6.0773,6.0889,6.0943,6.0965,6.0688,6.0687,6.0686,6.0685,0,0,5.9683,5.9843,5.9874,5.9935,6.0059,6.015,6.0271,6.0393,6.0455,6.0552,6.0652,6.0812,6.0795,6.0866,6.0895,6.0972,6.1098,6.0944,6.0947,6.0968,6.1276,6.1287,6.1311,6.1099,6.1104,6.1107,6.1266,0,5.9839,6.0055,6.01,6.0287,6.0394,6.0409,6.0514,6.0601,6.0651,6.0748,6.0803,6.0915,6.0886,6.0928,6.1006,6.1066,6.116,6.1056,6.1192,6.1196,6.1163,6.134,6.1353,6.1498,6.1288,6.1291,6.1294,0,6.0049,6.0151,6.0348,6.0457,6.0503,6.0597,6.0711,6.0805,6.0903,6.0934,6.1012,6.1032,6.1156,6.1101,6.1271,6.1199,6.1257,6.1295,6.1302,6.1315,6.1251,6.1355,6.1546,6.1567,6.1328,6.1325,6.1323,0,6.0142,6.0328,6.047,6.0522,6.0653,6.0717,6.0775,6.0869,6.0938,6.1038,6.1083,6.1195,6.1256,6.1342,6.139,6.1346,6.1556,6.1505,6.1583,6.1582,6.1626,6.1622,6.1826,6.1666,6.1666,6.1666,6.1665,0,6.0309,6.0429,6.0513,6.06,6.0733,6.0783,6.0913,6.097,6.1053,6.1149,6.1169,6.1259,6.1319,6.1417,6.1456,6.1589,6.1617,6.1644,6.1653,6.1642,6.1638,6.1679,6.1669,6.1672,6.167,6.1669,6.1668,0,6.0435,6.0496,6.0651,6.0762,6.0792,6.0886,6.098,6.1064,6.1114,6.1236,6.1267,6.1346,6.1462,6.1519,6.1664,6.169,6.184,6.1843,6.1807,6.181,6.1884,6.1876,6.2121,6.2155,6.1974,6.1976,6.1977,0,6.0537,6.0629,6.075,6.0816,6.0875,6.0983,6.1054,6.1106,6.1178,6.1296,6.1365,6.1482,6.1579,6.1763,6.1832,6.1942,6.1946,6.2025,6.1963,6.1948,6.1945,6.1938,6.1946,6.2035,6.2037,6.2038,6.2039,0,6.0711,6.0736,6.0839,6.0952,6.1036,6.1127,6.1217,6.127,6.1336,6.1417,6.1536,6.1611,6.1758,6.1873,6.1988,6.2045,6.2053,6.2059,6.2082,6.2071,6.2045,6.2058,6.1835,6.2052,6.2051,6.205,6.2049,6.2049,6.0827,6.0909,6.1006,6.1119,6.1192,6.1274,6.1358,6.1419,6.152,6.1644,6.1668,6.1794,6.1887,6.2042,6.2103,6.2201,6.2184,6.2218,6.2227,6.2234,6.2236,6.2031,6.2222,6.2222,6.2222,6.2222,6.2221,0,6.1,6.1063,6.1166,6.1291,6.1379,6.138,6.1479,6.1552,6.1663,6.175,6.1845,6.198,6.2092,6.217,6.2282,6.2346,6.2352,6.2373,6.2368,6.2381,6.2247,6.2214,6.2366,6.2366,6.2366,6.2366,6.2366,6.2366,6.11,6.1238,6.1275,6.1448,6.151,6.1634,6.169,6.1766,6.1836,6.1987,6.208,6.213,6.2213,6.2331,6.2433,6.2453,6.2492,6.2514,6.2533,6.2406,6.2391,6.2376,6.2345,6.2523,6.2523,6.2659,6.266,6.2661]}]]